Time,TemperatureF,DewpointF,PressureIn,WindDirection,WindDirectionDegrees,WindSpeedMPH,WindSpeedGustMPH,Humidity,HourlyPrecipIn,Conditions,Clouds,dailyrainin,SoftwareType,DateUTC
2013-01-04 00:00:00,31.4,27.4,30.22,South,176,11.5,11.5,85,0.00,OVC,,0.00,WeatherDisplay:10.37,2013-01-04 05:00:00,
2013-01-04 00:01:00,31.4,27.4,30.22,SSW,202,10.4,10.4,85,0.00,OVC,,0.00,WeatherDisplay:10.37,2013-01-04 05:01:00,
2013-01-04 00:03:00,31.4,27.4,30.22,South,171,9.2,9.2,85,0.00,OVC,,0.00,WeatherDisplay:10.37,2013-01-04 05:03:00,
2013-01-04 00:08:00,31.4,27.4,30.22,SSE,149,16.1,16.1,85,0.00,OVC,,0.00,WeatherDisplay:10.37,2013-01-04 05:08:00,
2013-01-04 00:13:00,31.4,27.1,30.22,SSW,195,15.0,15.0,84,0.00,OVC,,0.00,WeatherDisplay:10.37,2013-01-04 05:13:00,
2013-01-04 00:18:00,31.4,27.1,30.22,SW,221,18.0,18.0,84,0.00,OVC,,0.00,WeatherDisplay:10.37,2013-01-04 05:18:00,
2013-01-04 00:23:00,31.3,27.0,30.22,SW,214,19.6,19.6,84,0.00,OVC,,0.00,WeatherDisplay:10.37,2013-01-04 05:23:00,
2013-01-04 00:28:00,31.3,27.0,30.22,SSW,205,8.0,8.0,84,0.00,OVC,,0.00,WeatherDisplay:10.37,2013-01-04 05:28:00,
2013-01-04 00:33:00,31.3,27.0,30.22,SW,217,13.8,13.8,84,0.00,OVC,,0.00,WeatherDisplay:10.37,2013-01-04 05:33:00,
2013-01-04 00:38:00,31.3,27.0,30.21,SW,221,16.1,16.1,84,0.00,OVC,,0.00,WeatherDisplay:10.37,2013-01-04 05:38:00,
2013-01-04 00:43:00,31.3,27.0,30.21,SSW,201,16.1,16.1,84,0.00,OVC,,0.00,WeatherDisplay:10.37,2013-01-04 05:43:00,
2013-01-04 00:48:00,31.3,27.0,30.21,SSW,205,17.3,17.3,84,0.00,OVC,,0.00,WeatherDisplay:10.37,2013-01-04 05:48:00,
2013-01-04 00:53:00,31.3,27.0,30.21,SSW,213,14.0,14.0,84,0.00,OVC,,0.00,WeatherDisplay:10.37,2013-01-04 05:53:00,
2013-01-04 00:58:00,31.2,26.6,30.21,SW,222,10.4,10.4,83,0.00,OVC,,0.00,WeatherDisplay:10.37,2013-01-04 05:58:00,
2013-01-04 01:03:00,31.2,26.6,30.21,SSW,198,13.8,13.8,83,0.00,OVC,,0.00,WeatherDisplay:10.37,2013-01-04 06:03:00,
2013-01-04 01:08:00,31.2,26.9,30.20,SW,225,10.4,10.4,84,0.00,OVC,,0.00,WeatherDisplay:10.37,2013-01-04 06:08:00,
2013-01-04 01:13:00,31.2,26.9,30.20,SSW,207,12.7,12.7,84,0.00,OVC,,0.00,WeatherDisplay:10.37,2013-01-04 06:13:00,
2013-01-04 01:18:00,31.3,26.7,30.20,SE,142,13.8,13.8,83,0.00,OVC,,0.00,WeatherDisplay:10.37,2013-01-04 06:18:00,
2013-01-04 01:23:00,31.2,26.6,30.20,West,266,11.0,11.0,83,0.00,OVC,,0.00,WeatherDisplay:10.37,2013-01-04 06:23:00,
2013-01-04 01:28:00,31.3,26.7,30.20,SSW,207,11.5,11.5,83,0.00,OVC,,0.00,WeatherDisplay:10.37,2013-01-04 06:28:00,
2013-01-04 01:33:00,31.3,26.7,30.20,South,183,16.1,16.1,83,0.00,OVC,,0.00,WeatherDisplay:10.37,2013-01-04 06:33:00,
2013-01-04 01:38:00,31.2,26.3,30.20,South,188,17.3,17.3,82,0.00,OVC,,0.00,WeatherDisplay:10.37,2013-01-04 06:38:00,
2013-01-04 01:43:00,31.3,26.4,30.20,SSW,201,17.3,17.3,82,0.00,OVC,,0.00,WeatherDisplay:10.37,2013-01-04 06:43:00,
2013-01-04 01:48:00,31.3,26.7,30.20,SW,222,10.4,10.4,83,0.00,OVC,,0.00,WeatherDisplay:10.37,2013-01-04 06:48:00,
2013-01-04 01:53:00,31.3,26.7,30.20,SW,225,11.5,11.5,83,0.00,OVC,,0.00,WeatherDisplay:10.37,2013-01-04 06:53:00,
2013-01-04 01:58:00,31.3,26.4,30.20,South,169,13.8,13.8,82,0.00,OVC,,0.00,WeatherDisplay:10.37,2013-01-04 06:58:00,
2013-01-04 02:03:00,31.3,26.4,30.20,SSW,210,12.7,12.7,82,0.00,OVC,,0.00,WeatherDisplay:10.37,2013-01-04 07:03:00,
2013-01-04 02:08:00,31.2,26.0,30.20,SSW,212,13.8,13.8,81,0.00,OVC,,0.00,WeatherDisplay:10.37,2013-01-04 07:08:00,
2013-01-04 02:13:00,31.2,26.0,30.20,SSW,200,17.3,17.3,81,0.00,OVC,,0.00,WeatherDisplay:10.37,2013-01-04 07:13:00,
2013-01-04 02:18:00,31.2,25.7,30.20,SW,217,14.0,14.0,80,0.00,OVC,,0.00,WeatherDisplay:10.37,2013-01-04 07:18:00,
2013-01-04 02:23:00,31.2,25.7,30.20,SSW,211,17.3,17.3,80,0.00,OVC,,0.00,WeatherDisplay:10.37,2013-01-04 07:23:00,
2013-01-04 02:28:00,31.3,25.8,30.21,SSW,201,13.8,13.8,80,0.00,OVC,,0.00,WeatherDisplay:10.37,2013-01-04 07:28:00,
2013-01-04 02:33:00,31.3,26.1,30.21,SSW,207,11.5,11.5,81,0.00,OVC,,0.00,WeatherDisplay:10.37,2013-01-04 07:33:00,
2013-01-04 02:38:00,31.2,25.7,30.21,SW,216,9.2,9.2,80,0.00,OVC,,0.00,WeatherDisplay:10.37,2013-01-04 07:38:00,
2013-01-04 02:43:00,31.3,26.1,30.21,SSE,167,11.5,11.5,81,0.00,OVC,,0.00,WeatherDisplay:10.37,2013-01-04 07:43:00,
2013-01-04 02:48:00,31.3,26.1,30.21,SSW,200,11.5,11.5,81,0.00,OVC,,0.00,WeatherDisplay:10.37,2013-01-04 07:48:00,
2013-01-04 02:53:00,31.3,26.1,30.21,SSW,203,11.5,11.5,81,0.00,OVC,,0.00,WeatherDisplay:10.37,2013-01-04 07:53:00,
2013-01-04 02:58:00,31.2,25.7,30.21,SW,217,15.0,15.0,80,0.00,OVC,,0.00,WeatherDisplay:10.37,2013-01-04 07:58:00,
2013-01-04 03:03:00,31.2,26.0,30.21,SSW,204,15.0,15.0,81,0.00,OVC,,0.00,WeatherDisplay:10.37,2013-01-04 08:03:00,
2013-01-04 03:08:00,31.2,26.0,30.21,SW,219,10.4,10.4,81,0.00,OVC,,0.00,WeatherDisplay:10.37,2013-01-04 08:08:00,
2013-01-04 03:13:00,31.2,26.0,30.21,SE,144,10.4,10.6,81,0.00,OVC,,0.00,WeatherDisplay:10.37,2013-01-04 08:13:00,
2013-01-04 03:18:00,31.2,26.3,30.22,SW,223,12.0,12.0,82,0.00,OVC,,0.00,WeatherDisplay:10.37,2013-01-04 08:18:00,
2013-01-04 03:23:00,31.2,26.0,30.21,SSW,194,6.9,7.9,81,0.00,OVC,,0.00,WeatherDisplay:10.37,2013-01-04 08:23:00,
2013-01-04 03:28:00,31.0,25.6,30.21,SSW,200,8.1,8.4,80,0.00,OVC,,0.00,WeatherDisplay:10.37,2013-01-04 08:28:00,
2013-01-04 03:33:00,30.8,25.4,30.21,South,190,11.5,11.5,80,0.00,OVC,,0.00,WeatherDisplay:10.37,2013-01-04 08:33:00,
2013-01-04 03:38:00,30.8,26.0,30.21,SSW,209,9.2,9.2,82,0.00,OVC,,0.00,WeatherDisplay:10.37,2013-01-04 08:38:00,
2013-01-04 03:43:00,30.7,25.3,30.21,SSE,153,9.0,9.0,80,0.00,OVC,,0.00,WeatherDisplay:10.37,2013-01-04 08:43:00,
2013-01-04 03:48:00,30.7,25.3,30.20,SSW,198,12.7,12.7,80,0.00,OVC,,0.00,WeatherDisplay:10.37,2013-01-04 08:48:00,
2013-01-04 03:53:00,30.6,24.9,30.20,SSE,156,13.8,13.8,79,0.00,OVC,,0.00,WeatherDisplay:10.37,2013-01-04 08:53:00,
2013-01-04 03:58:00,30.5,25.1,30.20,South,189,10.4,10.4,80,0.00,OVC,,0.00,WeatherDisplay:10.37,2013-01-04 08:58:00,
2013-01-04 04:03:00,30.4,24.7,30.20,SSE,165,12.7,12.7,79,0.00,OVC,,0.00,WeatherDisplay:10.37,2013-01-04 09:03:00,
2013-01-04 04:08:00,30.4,24.7,30.20,SSW,196,11.5,11.5,79,0.00,OVC,,0.00,WeatherDisplay:10.37,2013-01-04 09:08:00,
2013-01-04 04:13:00,30.3,24.6,30.20,SSE,166,11.5,11.5,79,0.00,OVC,,0.00,WeatherDisplay:10.37,2013-01-04 09:13:00,
2013-01-04 04:18:00,30.3,24.3,30.19,South,183,9.2,9.2,78,0.00,OVC,,0.00,WeatherDisplay:10.37,2013-01-04 09:18:00,
2013-01-04 04:23:00,30.3,24.3,30.19,SSE,153,10.4,10.4,78,0.00,OVC,,0.00,WeatherDisplay:10.37,2013-01-04 09:23:00,
2013-01-04 04:28:00,30.3,24.3,30.19,SE,146,10.4,10.4,78,0.00,OVC,,0.00,WeatherDisplay:10.37,2013-01-04 09:28:00,
2013-01-04 04:33:00,30.2,24.2,30.19,SE,140,6.9,6.9,78,0.00,OVC,,0.00,WeatherDisplay:10.37,2013-01-04 09:33:00,
2013-01-04 04:38:00,30.2,23.9,30.19,South,169,12.7,12.7,77,0.00,OVC,,0.00,WeatherDisplay:10.37,2013-01-04 09:38:00,
2013-01-04 04:43:00,30.2,24.5,30.18,SE,132,13.8,13.8,79,0.00,OVC,,0.00,WeatherDisplay:10.37,2013-01-04 09:43:00,
2013-01-04 04:48:00,30.2,24.2,30.18,SSE,154,11.5,11.5,78,0.00,OVC,,0.00,WeatherDisplay:10.37,2013-01-04 09:48:00,
2013-01-04 04:53:00,30.2,24.2,30.18,South,185,11.5,11.5,78,0.00,OVC,,0.00,WeatherDisplay:10.37,2013-01-04 09:53:00,
2013-01-04 04:58:00,30.2,23.9,30.18,South,173,6.9,6.9,77,0.00,OVC,,0.00,WeatherDisplay:10.37,2013-01-04 09:58:00,
2013-01-04 05:03:00,30.2,24.2,30.18,SE,134,9.2,9.2,78,0.00,OVC,,0.00,WeatherDisplay:10.37,2013-01-04 10:03:00,
2013-01-04 05:08:00,30.1,24.1,30.18,South,169,12.7,12.7,78,0.00,OVC,,0.00,WeatherDisplay:10.37,2013-01-04 10:08:00,
2013-01-04 05:13:00,30.1,24.1,30.18,South,183,8.0,8.0,78,0.00,OVC,,0.00,WeatherDisplay:10.37,2013-01-04 10:13:00,
2013-01-04 05:18:00,30.1,24.1,30.18,SE,139,10.4,10.4,78,0.00,OVC,,0.00,WeatherDisplay:10.37,2013-01-04 10:18:00,
2013-01-04 05:23:00,30.0,24.0,30.18,SSE,164,9.2,9.2,78,0.00,OVC,,0.00,WeatherDisplay:10.37,2013-01-04 10:23:00,
2013-01-04 05:28:00,30.0,24.0,30.17,South,171,12.7,12.7,78,0.00,OVC,,0.00,WeatherDisplay:10.37,2013-01-04 10:28:00,
2013-01-04 05:33:00,29.9,23.9,30.17,South,191,12.7,12.7,78,0.00,OVC,,0.00,WeatherDisplay:10.37,2013-01-04 10:33:00,
2013-01-04 05:38:00,29.9,23.6,30.18,SSW,200,17.3,17.3,77,0.00,OVC,,0.00,WeatherDisplay:10.37,2013-01-04 10:38:00,
2013-01-04 05:43:00,29.9,23.9,30.18,SE,134,9.2,9.2,78,0.00,OVC,,0.00,WeatherDisplay:10.37,2013-01-04 10:43:00,
2013-01-04 05:48:00,29.9,23.9,30.18,South,189,12.0,12.0,78,0.00,OVC,,0.00,WeatherDisplay:10.37,2013-01-04 10:48:00,
2013-01-04 05:53:00,29.9,23.9,30.18,SSE,156,10.4,10.4,78,0.00,OVC,,0.00,WeatherDisplay:10.37,2013-01-04 10:53:00,
2013-01-04 05:58:00,29.9,23.9,30.18,SE,145,15.0,15.0,78,0.00,OVC,,0.00,WeatherDisplay:10.37,2013-01-04 10:58:00,
2013-01-04 06:03:00,29.9,24.2,30.18,SSW,201,12.7,12.7,79,0.00,OVC,,0.00,WeatherDisplay:10.37,2013-01-04 11:03:00,
2013-01-04 06:08:00,29.8,24.1,30.18,South,184,10.4,10.4,79,0.00,OVC,,0.00,WeatherDisplay:10.37,2013-01-04 11:08:00,
2013-01-04 06:13:00,29.9,24.5,30.19,SSE,167,12.7,12.7,80,0.00,OVC,,0.00,WeatherDisplay:10.37,2013-01-04 11:13:00,
2013-01-04 06:18:00,29.9,24.2,30.19,South,175,12.7,12.7,79,0.00,OVC,,0.00,WeatherDisplay:10.37,2013-01-04 11:18:00,
2013-01-04 06:23:00,29.9,23.9,30.19,SSE,149,8.1,8.1,78,0.00,OVC,,0.00,WeatherDisplay:10.37,2013-01-04 11:23:00,
2013-01-04 06:28:00,29.9,23.9,30.19,South,184,11.0,11.0,78,0.00,OVC,,0.00,WeatherDisplay:10.37,2013-01-04 11:28:00,
2013-01-04 06:33:00,29.9,24.2,30.19,SW,214,11.5,11.5,79,0.00,OVC,,0.00,WeatherDisplay:10.37,2013-01-04 11:33:00,
2013-01-04 06:38:00,29.8,24.1,30.20,SSE,159,12.7,12.7,79,0.00,OVC,,0.00,WeatherDisplay:10.37,2013-01-04 11:38:00,
2013-01-04 06:43:00,29.8,23.8,30.19,SSE,161,9.2,9.2,78,0.00,OVC,,0.00,WeatherDisplay:10.37,2013-01-04 11:43:00,
2013-01-04 06:48:00,29.8,23.8,30.19,South,182,11.5,11.5,78,0.00,OVC,,0.00,WeatherDisplay:10.37,2013-01-04 11:48:00,
2013-01-04 06:53:00,29.8,23.5,30.19,South,187,10.0,10.0,77,0.00,OVC,,0.00,WeatherDisplay:10.37,2013-01-04 11:53:00,
2013-01-04 06:58:00,29.7,23.7,30.20,SSE,162,11.5,11.5,78,0.00,OVC,,0.00,WeatherDisplay:10.37,2013-01-04 11:58:00,
2013-01-04 07:03:00,29.7,23.4,30.20,SSE,165,13.8,13.8,77,0.00,OVC,,0.00,WeatherDisplay:10.37,2013-01-04 12:03:00,
2013-01-04 07:08:00,29.5,22.9,30.20,South,169,16.1,16.1,76,0.00,OVC,,0.00,WeatherDisplay:10.37,2013-01-04 12:08:00,
2013-01-04 07:13:00,29.3,22.7,30.20,SSW,213,5.8,5.8,76,0.00,OVC,,0.00,WeatherDisplay:10.37,2013-01-04 12:13:00,
2013-01-04 07:18:00,29.2,22.9,30.20,SSW,198,12.7,12.7,77,0.00,OVC,,0.00,WeatherDisplay:10.37,2013-01-04 12:18:00,
2013-01-04 07:23:00,29.0,22.4,30.20,SSW,211,9.2,9.2,76,0.00,OVC,,0.00,WeatherDisplay:10.37,2013-01-04 12:23:00,
2013-01-04 07:28:00,28.9,22.3,30.20,SSE,165,13.0,13.0,76,0.00,OVC,,0.00,WeatherDisplay:10.37,2013-01-04 12:28:00,
2013-01-04 07:33:00,28.7,21.8,30.20,SSW,207,10.4,10.4,75,0.00,OVC,,0.00,WeatherDisplay:10.37,2013-01-04 12:33:00,
2013-01-04 07:38:00,28.5,21.6,30.20,SSE,167,10.4,10.4,75,0.00,OVC,,0.00,WeatherDisplay:10.37,2013-01-04 12:38:00,
2013-01-04 07:43:00,28.3,21.4,30.20,South,169,13.0,13.0,75,0.00,OVC,,0.00,WeatherDisplay:10.37,2013-01-04 12:43:00,
2013-01-04 07:48:00,28.1,20.9,30.20,South,177,17.3,17.3,74,0.00,OVC,,0.00,WeatherDisplay:10.37,2013-01-04 12:48:00,
2013-01-04 07:53:00,28.0,20.8,30.20,SSW,204,10.4,10.4,74,0.00,OVC,,0.00,WeatherDisplay:10.37,2013-01-04 12:53:00,
2013-01-04 07:58:00,27.9,21.0,30.20,South,179,11.5,11.5,75,0.00,OVC,,0.00,WeatherDisplay:10.37,2013-01-04 12:58:00,
2013-01-04 08:03:00,27.8,20.9,30.21,SSW,207,9.2,9.2,75,0.00,BKN,,0.00,WeatherDisplay:10.37,2013-01-04 13:03:00,
2013-01-04 08:08:00,27.8,21.2,30.20,SW,235,13.8,13.8,76,0.00,BKN,,0.00,WeatherDisplay:10.37,2013-01-04 13:08:00,
2013-01-04 08:13:00,27.8,20.9,30.21,SSW,198,15.0,15.0,75,0.00,BKN,,0.00,WeatherDisplay:10.37,2013-01-04 13:13:00,
2013-01-04 08:18:00,27.7,20.8,30.21,SSE,165,16.1,16.1,75,0.00,BKN,,0.00,WeatherDisplay:10.37,2013-01-04 13:18:00,
2013-01-04 08:23:00,27.6,20.7,30.21,SSW,210,11.5,11.5,75,0.00,BKN,,0.00,WeatherDisplay:10.37,2013-01-04 13:23:00,
2013-01-04 08:28:00,27.6,21.3,30.21,South,180,8.1,8.1,77,0.00,BKN,,0.00,WeatherDisplay:10.37,2013-01-04 13:28:00,
2013-01-04 08:33:00,27.6,21.0,30.22,SSE,165,11.5,11.5,76,0.00,BKN,,0.00,WeatherDisplay:10.37,2013-01-04 13:33:00,
2013-01-04 08:38:00,27.5,20.6,30.21,South,173,15.0,15.0,75,0.00,BKN,,0.00,WeatherDisplay:10.37,2013-01-04 13:38:00,
2013-01-04 08:43:00,27.4,20.5,30.21,SSW,192,11.5,11.5,75,0.00,BKN,,0.00,WeatherDisplay:10.37,2013-01-04 13:43:00,
2013-01-04 08:48:00,27.4,20.8,30.22,South,190,12.7,12.7,76,0.00,BKN,,0.00,WeatherDisplay:10.37,2013-01-04 13:48:00,
2013-01-04 08:53:00,27.5,20.9,30.22,SSE,149,11.5,11.5,76,0.00,BKN,,0.00,WeatherDisplay:10.37,2013-01-04 13:53:00,
2013-01-04 08:58:00,27.5,20.9,30.22,SSW,192,12.0,12.0,76,0.00,BKN,,0.00,WeatherDisplay:10.37,2013-01-04 13:58:00,
2013-01-04 09:03:00,27.6,21.3,30.22,SSW,212,13.8,13.8,77,0.00,CLR,,0.00,WeatherDisplay:10.37,2013-01-04 14:03:00,
2013-01-04 09:08:00,27.7,21.4,30.22,SSW,197,10.4,10.4,77,0.00,CLR,,0.00,WeatherDisplay:10.37,2013-01-04 14:08:00,
2013-01-04 09:13:00,27.9,21.9,30.21,South,171,11.5,11.5,78,0.00,CLR,,0.00,WeatherDisplay:10.37,2013-01-04 14:13:00,
2013-01-04 09:18:00,28.0,22.3,30.22,South,189,18.4,18.4,79,0.00,CLR,,0.00,WeatherDisplay:10.37,2013-01-04 14:18:00,
2013-01-04 09:23:00,28.2,22.2,30.21,SSE,157,13.8,13.8,78,0.00,CLR,,0.00,WeatherDisplay:10.37,2013-01-04 14:23:00,
2013-01-04 09:28:00,28.1,21.5,30.21,SSE,163,10.4,10.4,76,0.00,CLR,,0.00,WeatherDisplay:10.37,2013-01-04 14:28:00,
2013-01-04 09:33:00,28.1,21.5,30.21,SSW,211,18.4,18.4,76,0.00,CLR,,0.00,WeatherDisplay:10.37,2013-01-04 14:33:00,
2013-01-04 09:38:00,28.0,21.4,30.21,SSE,164,11.5,11.5,76,0.00,CLR,,0.00,WeatherDisplay:10.37,2013-01-04 14:38:00,
2013-01-04 09:43:00,28.0,20.8,30.20,South,169,19.6,19.6,74,0.00,CLR,,0.00,WeatherDisplay:10.37,2013-01-04 14:43:00,
2013-01-04 09:48:00,28.0,20.8,30.20,South,185,19.6,19.6,74,0.00,CLR,,0.00,WeatherDisplay:10.37,2013-01-04 14:48:00,
2013-01-04 09:53:00,28.0,20.8,30.20,South,169,7.0,7.0,74,0.00,CLR,,0.00,WeatherDisplay:10.37,2013-01-04 14:53:00,
2013-01-04 10:05:00,28.2,21.0,30.21,SSE,150,11.5,0.0,74,0.00,CLR,,0.00,WeatherDisplay:10.37,2013-01-04 15:05:00,
2013-01-04 10:10:00,28.3,21.1,30.21,SE,139,15.0,15.0,74,0.00,CLR,,0.00,WeatherDisplay:10.37,2013-01-04 15:10:00,
2013-01-04 10:15:00,28.4,21.2,30.21,SW,216,11.5,11.5,74,0.00,CLR,,0.00,WeatherDisplay:10.37,2013-01-04 15:15:00,
2013-01-04 10:20:00,28.4,20.8,30.20,ESE,123,11.5,11.5,73,0.00,CLR,,0.00,WeatherDisplay:10.37,2013-01-04 15:20:00,
2013-01-04 10:25:00,28.6,21.0,30.20,South,176,10.4,10.4,73,0.00,CLR,,0.00,WeatherDisplay:10.37,2013-01-04 15:25:00,
2013-01-04 10:30:00,28.8,21.2,30.20,SSE,164,8.1,8.1,73,0.00,CLR,,0.00,WeatherDisplay:10.37,2013-01-04 15:30:00,
2013-01-04 10:35:00,28.8,20.9,30.20,SSE,163,12.0,12.0,72,0.00,CLR,,0.00,WeatherDisplay:10.37,2013-01-04 15:35:00,
2013-01-04 10:40:00,28.7,21.1,30.20,SSW,199,11.5,11.5,73,0.00,CLR,,0.00,WeatherDisplay:10.37,2013-01-04 15:40:00,
2013-01-04 10:45:00,28.8,21.2,30.20,South,181,11.5,11.5,73,0.00,CLR,,0.00,WeatherDisplay:10.37,2013-01-04 15:45:00,
2013-01-04 10:50:00,28.9,21.7,30.20,SW,221,17.3,17.3,74,0.00,CLR,,0.00,WeatherDisplay:10.37,2013-01-04 15:50:00,
2013-01-04 10:55:00,29.0,21.1,30.20,SSE,167,13.8,13.8,72,0.00,CLR,,0.00,WeatherDisplay:10.37,2013-01-04 15:55:00,
2013-01-04 11:00:00,29.0,20.8,30.20,South,184,15.0,15.0,71,0.00,CLR,,0.00,WeatherDisplay:10.37,2013-01-04 16:00:00,
2013-01-04 11:05:00,29.2,21.3,30.20,South,184,13.0,13.0,72,0.00,CLR,,0.00,WeatherDisplay:10.37,2013-01-04 16:05:00,
2013-01-04 11:10:00,29.3,22.0,30.20,SE,142,15.0,15.0,74,0.00,CLR,,0.00,WeatherDisplay:10.37,2013-01-04 16:10:00,
2013-01-04 11:15:00,29.4,21.8,30.20,SSW,193,15.0,15.0,73,0.00,CLR,,0.00,WeatherDisplay:10.37,2013-01-04 16:15:00,
2013-01-04 11:20:00,29.4,21.2,30.20,SSE,148,19.6,19.6,71,0.00,CLR,,0.00,WeatherDisplay:10.37,2013-01-04 16:20:00,
2013-01-04 11:25:00,29.5,20.9,30.20,South,182,19.6,19.6,70,0.00,CLR,,0.00,WeatherDisplay:10.37,2013-01-04 16:25:00,
2013-01-04 11:30:00,29.6,21.3,30.19,SSE,167,11.5,11.5,71,0.00,CLR,,0.00,WeatherDisplay:10.37,2013-01-04 16:30:00,
2013-01-04 11:35:00,29.8,21.2,30.19,SSW,194,13.8,13.8,70,0.00,CLR,,0.00,WeatherDisplay:10.37,2013-01-04 16:35:00,
2013-01-04 11:40:00,29.8,21.2,30.19,SSE,159,12.7,12.7,70,0.00,CLR,,0.00,WeatherDisplay:10.37,2013-01-04 16:40:00,
2013-01-04 11:45:00,30.0,21.7,30.18,South,182,17.3,17.3,71,0.00,CLR,,0.00,WeatherDisplay:10.37,2013-01-04 16:45:00,
2013-01-04 11:50:00,30.2,21.6,30.18,South,190,10.4,10.4,70,0.00,CLR,,0.00,WeatherDisplay:10.37,2013-01-04 16:50:00,
2013-01-04 11:55:00,30.2,21.2,30.18,South,180,11.5,11.5,69,0.00,CLR,,0.00,WeatherDisplay:10.37,2013-01-04 16:55:00,
2013-01-04 12:00:00,30.4,21.1,30.17,SSE,153,10.0,10.0,68,0.00,CLR,,0.00,WeatherDisplay:10.37,2013-01-04 17:00:00,
2013-01-04 12:05:00,30.7,21.0,30.17,SSE,157,11.5,11.5,67,0.00,CLR,,0.00,WeatherDisplay:10.37,2013-01-04 17:05:00,
2013-01-04 12:10:00,30.8,21.1,30.17,South,175,10.4,10.4,67,0.01,RA,,0.01,WeatherDisplay:10.37,2013-01-04 17:10:00,
2013-01-04 12:15:00,30.9,21.2,30.16,WSW,240,12.7,12.7,67,0.01,CLR,,0.01,WeatherDisplay:10.37,2013-01-04 17:15:00,
2013-01-04 12:20:00,31.1,21.1,30.16,SSE,158,19.6,19.6,66,0.01,CLR,,0.01,WeatherDisplay:10.37,2013-01-04 17:20:00,
2013-01-04 12:25:00,31.1,21.1,30.15,SSE,153,12.7,12.7,66,0.01,CLR,,0.01,WeatherDisplay:10.37,2013-01-04 17:25:00,
2013-01-04 12:30:00,31.2,20.4,30.15,SSE,152,16.1,16.1,64,0.01,CLR,,0.01,WeatherDisplay:10.37,2013-01-04 17:30:00,
2013-01-04 12:35:00,31.4,20.6,30.14,SSE,159,23.0,23.0,64,0.01,CLR,,0.01,WeatherDisplay:10.37,2013-01-04 17:35:00,
2013-01-04 12:40:00,31.4,21.0,30.14,SSE,164,8.1,8.1,65,0.01,CLR,,0.01,WeatherDisplay:10.37,2013-01-04 17:40:00,
2013-01-04 12:45:00,31.5,20.7,30.14,SSW,200,15.0,15.0,64,0.01,CLR,,0.01,WeatherDisplay:10.37,2013-01-04 17:45:00,
2013-01-04 12:50:00,31.4,20.2,30.14,South,172,13.8,13.8,63,0.01,CLR,,0.01,WeatherDisplay:10.37,2013-01-04 17:50:00,
2013-01-04 12:55:00,31.5,20.7,30.15,South,173,10.4,10.4,64,0.01,CLR,,0.01,WeatherDisplay:10.37,2013-01-04 17:55:00,
2013-01-04 13:00:00,31.9,21.1,30.14,South,190,16.1,16.1,64,0.01,CLR,,0.01,WeatherDisplay:10.37,2013-01-04 18:00:00,
2013-01-04 13:05:00,32.0,21.2,30.14,SSE,168,6.9,6.9,64,0.01,CLR,,0.01,WeatherDisplay:10.37,2013-01-04 18:05:00,
2013-01-04 13:10:00,32.3,20.7,30.14,South,184,14.0,14.0,62,0.00,CLR,,0.01,WeatherDisplay:10.37,2013-01-04 18:10:00,
2013-01-04 13:15:00,32.5,20.9,30.14,SSE,157,15.0,15.0,62,0.00,CLR,,0.01,WeatherDisplay:10.37,2013-01-04 18:15:00,
2013-01-04 13:20:00,32.2,21.4,30.14,SSW,199,16.1,16.1,64,0.00,CLR,,0.01,WeatherDisplay:10.37,2013-01-04 18:20:00,
2013-01-04 13:25:00,31.9,22.2,30.13,SSE,160,11.5,11.5,67,0.00,CLR,,0.01,WeatherDisplay:10.37,2013-01-04 18:25:00,
2013-01-04 13:30:00,32.0,21.6,30.14,South,185,11.5,11.5,65,0.00,CLR,,0.01,WeatherDisplay:10.37,2013-01-04 18:30:00,
2013-01-04 13:35:00,32.4,21.6,30.13,SW,215,12.7,12.7,64,0.00,CLR,,0.01,WeatherDisplay:10.37,2013-01-04 18:35:00,
2013-01-04 13:40:00,32.2,21.0,30.13,SSE,147,16.1,16.1,63,0.00,CLR,,0.01,WeatherDisplay:10.37,2013-01-04 18:40:00,
2013-01-04 13:45:00,32.1,20.5,30.13,SSE,153,19.6,19.6,62,0.01,RA,,0.02,WeatherDisplay:10.37,2013-01-04 18:45:00,
2013-01-04 13:50:00,31.9,20.3,30.12,SSE,155,26.5,26.5,62,0.01,CLR,,0.03,WeatherDisplay:10.37,2013-01-04 18:50:00,
2013-01-04 13:55:00,31.7,20.5,30.12,SSE,151,16.1,16.1,63,0.02,RA,,0.03,WeatherDisplay:10.37,2013-01-04 18:55:00,
2013-01-04 14:00:00,31.5,20.3,30.11,SE,130,24.2,24.2,63,0.02,CLR,,0.03,WeatherDisplay:10.37,2013-01-04 19:00:00,
2013-01-04 14:05:00,31.3,20.2,30.11,SE,145,23.0,23.0,63,0.02,CLR,,0.03,WeatherDisplay:10.37,2013-01-04 19:05:00,
2013-01-04 14:10:00,31.5,20.7,30.12,SSE,161,11.5,11.5,64,0.02,CLR,,0.03,WeatherDisplay:10.37,2013-01-04 19:10:00,
2013-01-04 14:15:00,31.7,20.9,30.11,South,175,12.7,12.7,64,0.02,CLR,,0.03,WeatherDisplay:10.37,2013-01-04 19:15:00,
2013-01-04 14:20:00,31.7,20.2,30.11,SSW,192,18.4,18.4,62,0.02,CLR,,0.03,WeatherDisplay:10.37,2013-01-04 19:20:00,
2013-01-04 14:25:00,31.7,20.5,30.12,SE,134,16.1,16.1,63,0.02,CLR,,0.03,WeatherDisplay:10.37,2013-01-04 19:25:00,
2013-01-04 14:30:00,31.6,20.1,30.12,South,177,18.4,18.4,62,0.02,CLR,,0.03,WeatherDisplay:10.37,2013-01-04 19:30:00,
2013-01-04 14:35:00,31.5,20.3,30.13,SSW,203,18.4,18.4,63,0.02,CLR,,0.03,WeatherDisplay:10.37,2013-01-04 19:35:00,
2013-01-04 14:40:00,31.5,20.3,30.12,SSW,206,15.0,15.0,63,0.02,CLR,,0.03,WeatherDisplay:10.37,2013-01-04 19:40:00,
2013-01-04 14:45:00,31.6,20.4,30.12,SSE,157,12.7,12.7,63,0.01,CLR,,0.03,WeatherDisplay:10.37,2013-01-04 19:45:00,
2013-01-04 14:50:00,31.7,20.5,30.12,SE,142,12.7,12.7,63,0.01,CLR,,0.03,WeatherDisplay:10.37,2013-01-04 19:50:00,
2013-01-04 14:55:00,31.7,20.5,30.13,SSE,150,15.0,15.0,63,0.00,CLR,,0.03,WeatherDisplay:10.37,2013-01-04 19:55:00,
2013-01-04 15:00:00,31.7,20.9,30.13,South,173,9.2,9.2,64,0.00,CLR,,0.03,WeatherDisplay:10.37,2013-01-04 20:00:00,
2013-01-04 15:05:00,31.8,21.0,30.13,SSW,196,13.8,13.8,64,0.00,CLR,,0.03,WeatherDisplay:10.37,2013-01-04 20:05:00,
2013-01-04 15:10:00,31.8,21.0,30.13,South,175,16.1,16.1,64,0.00,CLR,,0.03,WeatherDisplay:10.37,2013-01-04 20:10:00,
2013-01-04 15:15:00,31.7,20.9,30.13,South,178,19.6,19.6,64,0.00,CLR,,0.03,WeatherDisplay:10.37,2013-01-04 20:15:00,
2013-01-04 15:20:00,31.5,21.4,30.13,South,172,11.5,11.5,66,0.00,CLR,,0.03,WeatherDisplay:10.37,2013-01-04 20:20:00,
2013-01-04 15:25:00,31.5,20.7,30.13,South,185,10.4,10.4,64,0.00,CLR,,0.03,WeatherDisplay:10.37,2013-01-04 20:25:00,
2013-01-04 15:30:00,31.6,20.4,30.13,South,172,11.5,11.5,63,0.00,CLR,,0.03,WeatherDisplay:10.37,2013-01-04 20:30:00,
2013-01-04 15:35:00,31.5,20.3,30.13,ESE,118,19.6,19.6,63,0.00,CLR,,0.03,WeatherDisplay:10.37,2013-01-04 20:35:00,
2013-01-04 15:40:00,31.2,20.4,30.12,South,182,15.0,15.0,64,0.00,CLR,,0.03,WeatherDisplay:10.37,2013-01-04 20:40:00,
2013-01-04 15:45:00,31.2,20.1,30.12,SSE,160,20.0,20.0,63,0.00,CLR,,0.03,WeatherDisplay:10.37,2013-01-04 20:45:00,
2013-01-04 15:50:00,31.3,20.5,30.13,SSW,199,14.0,14.0,64,0.00,CLR,,0.03,WeatherDisplay:10.37,2013-01-04 20:50:00,
2013-01-04 15:55:00,31.3,20.5,30.13,SSE,151,19.0,19.0,64,0.00,CLR,,0.03,WeatherDisplay:10.37,2013-01-04 20:55:00,
2013-01-04 16:00:00,31.1,20.7,30.13,South,177,18.4,18.4,65,0.00,CLR,,0.03,WeatherDisplay:10.37,2013-01-04 21:00:00,
2013-01-04 16:05:00,30.9,20.5,30.14,South,182,17.3,17.3,65,0.00,CLR,,0.03,WeatherDisplay:10.37,2013-01-04 21:05:00,
2013-01-04 16:10:00,30.8,20.0,30.14,South,169,10.4,10.4,64,0.00,CLR,,0.03,WeatherDisplay:10.37,2013-01-04 21:10:00,
2013-01-04 16:15:00,30.8,20.0,30.14,South,173,11.5,11.5,64,0.00,CLR,,0.03,WeatherDisplay:10.37,2013-01-04 21:15:00,
2013-01-04 16:20:00,30.8,20.8,30.15,South,191,12.7,12.7,66,0.00,CLR,,0.03,WeatherDisplay:10.37,2013-01-04 21:20:00,
2013-01-04 16:25:00,30.8,21.5,30.14,South,171,17.3,17.3,68,0.00,CLR,,0.03,WeatherDisplay:10.37,2013-01-04 21:25:00,
2013-01-04 16:30:00,30.8,22.2,30.14,South,171,15.0,15.0,70,0.00,CLR,,0.03,WeatherDisplay:10.37,2013-01-04 21:30:00,
2013-01-04 16:35:00,30.6,20.6,30.14,SSW,195,17.3,17.3,66,0.00,CLR,,0.03,WeatherDisplay:10.37,2013-01-04 21:35:00,
2013-01-04 16:40:00,30.5,20.8,30.14,South,173,12.7,12.7,67,0.00,CLR,,0.03,WeatherDisplay:10.37,2013-01-04 21:40:00,
2013-01-04 16:45:00,30.5,20.8,30.14,SSW,203,19.6,19.6,67,0.00,CLR,,0.03,WeatherDisplay:10.37,2013-01-04 21:45:00,
2013-01-04 16:50:00,30.3,20.6,30.14,SE,129,14.0,14.0,67,0.00,CLR,,0.03,WeatherDisplay:10.37,2013-01-04 21:50:00,
2013-01-04 16:55:00,30.2,20.9,30.14,SSE,148,18.0,18.0,68,0.00,CLR,,0.03,WeatherDisplay:10.37,2013-01-04 21:55:00,
2013-01-04 17:00:00,30.2,20.6,30.14,SSE,155,13.8,13.8,67,0.00,CLR,,0.03,WeatherDisplay:10.37,2013-01-04 22:00:00,
2013-01-04 17:05:00,30.1,20.5,30.14,South,176,18.4,18.4,67,0.00,CLR,,0.03,WeatherDisplay:10.37,2013-01-04 22:05:00,
2013-01-04 17:10:00,29.9,20.3,30.14,SSE,149,15.0,15.0,67,0.00,CLR,,0.03,WeatherDisplay:10.37,2013-01-04 22:10:00,
2013-01-04 17:15:00,29.9,20.3,30.14,SSE,152,17.3,17.3,67,0.00,CLR,,0.03,WeatherDisplay:10.37,2013-01-04 22:15:00,
2013-01-04 17:20:00,29.8,20.2,30.14,South,185,17.3,17.3,67,0.00,CLR,,0.03,WeatherDisplay:10.37,2013-01-04 22:20:00,
2013-01-04 17:25:00,29.7,20.4,30.14,SE,126,13.8,13.8,68,0.00,CLR,,0.03,WeatherDisplay:10.37,2013-01-04 22:25:00,
2013-01-04 17:30:00,29.6,20.3,30.14,SSE,159,12.7,12.7,68,0.00,CLR,,0.03,WeatherDisplay:10.37,2013-01-04 22:30:00,
2013-01-04 17:35:00,29.4,20.1,30.15,SSW,196,8.1,8.1,68,0.00,CLR,,0.03,WeatherDisplay:10.37,2013-01-04 22:35:00,
2013-01-04 17:40:00,29.4,20.5,30.15,South,183,13.8,13.8,69,0.00,CLR,,0.03,WeatherDisplay:10.37,2013-01-04 22:40:00,
2013-01-04 17:45:00,29.4,21.2,30.15,South,178,18.4,18.4,71,0.00,CLR,,0.03,WeatherDisplay:10.37,2013-01-04 22:45:00,
2013-01-04 17:50:00,29.4,20.5,30.16,SSE,165,11.5,11.5,69,0.00,CLR,,0.03,WeatherDisplay:10.37,2013-01-04 22:50:00,
2013-01-04 17:55:00,29.4,20.8,30.16,SSE,168,18.4,18.4,70,0.00,CLR,,0.03,WeatherDisplay:10.37,2013-01-04 22:55:00,
2013-01-04 18:00:00,29.4,20.5,30.17,SW,226,11.0,11.5,69,0.00,CLR,,0.03,WeatherDisplay:10.37,2013-01-04 23:00:00,
2013-01-04 18:05:00,29.4,20.5,30.17,SSE,159,15.0,15.0,69,0.00,CLR,,0.03,WeatherDisplay:10.37,2013-01-04 23:05:00,
2013-01-04 18:10:00,29.4,20.8,30.17,SSE,151,11.5,11.5,70,0.00,CLR,,0.03,WeatherDisplay:10.37,2013-01-04 23:10:00,
2013-01-04 18:15:00,29.3,20.7,30.17,SSE,158,18.4,18.4,70,0.00,CLR,,0.03,WeatherDisplay:10.37,2013-01-04 23:15:00,
2013-01-04 18:20:00,29.2,20.6,30.18,South,176,17.3,17.3,70,0.00,CLR,,0.03,WeatherDisplay:10.37,2013-01-04 23:20:00,
2013-01-04 18:25:00,29.1,20.5,30.18,South,186,10.4,10.4,70,0.00,CLR,,0.03,WeatherDisplay:10.37,2013-01-04 23:25:00,
2013-01-04 18:30:00,29.1,20.5,30.18,SE,127,16.1,16.1,70,0.00,CLR,,0.03,WeatherDisplay:10.37,2013-01-04 23:30:00,
2013-01-04 18:35:00,29.2,21.0,30.19,SSW,209,13.8,13.8,71,0.00,CLR,,0.03,WeatherDisplay:10.37,2013-01-04 23:35:00,
2013-01-04 18:40:00,29.3,21.7,30.19,SSE,153,9.2,9.2,73,0.00,CLR,,0.03,WeatherDisplay:10.37,2013-01-04 23:40:00,
2013-01-04 18:45:00,29.4,21.2,30.19,SSE,148,13.0,13.0,71,0.00,CLR,,0.03,WeatherDisplay:10.37,2013-01-04 23:45:00,
2013-01-04 18:50:00,29.5,21.6,30.19,SW,225,11.5,11.5,72,0.00,CLR,,0.03,WeatherDisplay:10.37,2013-01-04 23:50:00,
2013-01-04 18:55:00,29.4,21.2,30.19,South,184,15.0,15.0,71,0.00,CLR,,0.03,WeatherDisplay:10.37,2013-01-04 23:55:00,
2013-01-04 19:00:00,29.5,22.9,30.20,SSW,202,15.0,15.0,76,0.00,CLR,,0.03,WeatherDisplay:10.37,2013-01-05 00:00:00,